Location: Kitt Peak
(31.9639°N, 111.5992°W)
Time: 14:23:35
(UTC-07:00)

N. Korean satellite - Visible Passes

Search period start: 20 February 2018 00:00
Search period end: 02 March 2018 00:00
Orbit: 459 x 514 km, 97.2° (Epoch: 20 February)

Date Brightness Start Highest point End Pass type
(mag) Time Alt. Az. Time Alt. Az. Time Alt. Az.
20 Feb 7.7 18:43:57 10° S 18:47:15 46° W 18:50:36 10° NNW visible
21 Feb 10.0 06:16:15 10° NE 06:18:54 19° E 06:21:35 10° SE visible
23 Feb 9.4 19:06:51 10° SSW 19:09:33 21° W 19:12:17 10° NW visible
24 Feb 7.6 18:42:25 10° S 18:45:44 49° W 18:49:07 10° NNW visible
25 Feb 10.0 06:14:47 10° NE 06:17:25 18° E 06:20:02 10° SE visible
26 Feb 10.5 19:31:11 10° WSW 19:31:52 10° W 19:32:34 10° W visible
27 Feb 9.4 19:05:13 10° SSW 19:07:59 22° W 19:10:47 10° NW visible
01 Mar 10.1 06:13:18 10° NE 06:15:53 18° E 06:18:27 10° SE visible
